Tracking 35237 objects as of 5-Sep-2026
HD Live streaming from Space Station
objects crossing your sky now

SITRO-AIS-55

Track SITRO-AIS-55 now!
10-day predictions
SITRO-AIS-55 is classified as:


NORAD ID: 59809
Int'l Code: 2024-092K
Launch date: May 16, 2024
Source: Commonwealth of Independent States (former USSR) (CIS)
Launch site: PLESETSK MISSILE AND SPACE COMPLEX (PKMTR)

Uplink (MHz):
Downlink (MHz): 401.108
Beacon (MHz):
Mode: 2k4 GMSK_USP
Call sign: SC2343
Status: Active

Your satellite tracking list
Your tracking list is empty




NASA's NSSDC Master Catalog

Two Line Element Set (TLE):
1 59809U 24092K   26247.34448877  .00013732  00000-0  35444-3 0  9993
2 59809  97.6661  23.6186 0006040 219.7065 140.3738 15.39262676127401
Source of the keplerian elements: AFSPC